Location: Aragoneses
(41.0275°N, 4.3847°W)
Time: 04:58:18
(UTC+00:00)

ISS - Pass Details

Date: 16 February 2026
Orbit: 415 x 426 km, 51.6° (Epoch: 11 March)

Event Time Altitude Azimuth Distance (km) Brightness Sun altitude
Exits shadow 05:23:57 71° 34° (NE) 444 -3.7 -20.8°
Drops below altitude 10° 05:26:59 10° 53° (NE) 1,493 -0.2 -20.2°
Sets 05:29:05 0° 54° (NE) 2,357 0.9 -19.8°
